Location: Unspecified
(0.0000°N, 0.0000°E)
Time: 07:00:04
(UTC+00:00)

S-56A Canister/Altair - Pass Details

Date: 25 May 2024
Orbit: 637 x 2489 km, 38.9° (Epoch: 22 June)

Event Time Altitude Azimuth Distance (km) Brightness Sun altitude
Rises 03:07:55 0° 243° (WSW) 5,899 - -38.9°
Reaches altitude 10° 03:11:47 10° 247° (WSW) 5,019 - -38.0°
Exits shadow 03:23:14 47° 292° (WNW) 3,070 10.1 -35.5°
Maximum altitude 03:25:56 50° 318° (NW) 2,943 10.2 -34.9°
Drops below altitude 10° 03:39:05 10° 30° (NNE) 4,660 12.1 -31.9°
Sets 03:42:36 0° 36° (NE) 5,461 12.7 -31.1°
